Weather History for KINW - June, 2013

Change the Weather History Date:

Sunday, June 16, 2013

  Actual Average Record
Temperature  
Mean Temperature 78 °F 73 °F  
Max Temperature 95 °F 92 °F 102 °F (1940)
Min Temperature 60 °F 54 °F 42 °F (1981)
Degree Days  
Heating Degree Days 0 0  
Month to date heating degree days 0 8  
Since 1 July heating degree days 4188 4495  
Cooling Degree Days 13 8  
Month to date cooling degree days 191 98  
Year to date cooling degree days 247 165  
Growing Degree Days 28 (Base 50)    
Moisture  
Dew Point 35 °F    
Average Humidity 33    
Maximum Humidity 55    
Minimum Humidity 10    
Precipitation  
Precipitation T in 0.01 in 0.05 in (1999)
Month to date precipitation T 0.08  
Year to date precipitation 1.79 2.19  
Sea Level Pressure  
Sea Level Pressure 29.87 in    
Wind  
Wind Speed 12 mph (South)    
Max Wind Speed 28 mph    
Max Gust Speed 33 mph    
Visibility 10 miles    
Events      
T = Trace of Precipitation, MM = Missing Value Source: NWS Daily Summary

Daily Weather History Graph

Daily Weather History Graph

Search for Another Location

Airport or City:

Trip Planner

Search our weather history database for the weather conditions in past years. The results will help you decide how hot, cold, wet, or windy it might be!

Date:

Astronomy

Jun. 16, 2013 Rise Set
Actual Time 5:08 AM MST 7:38 PM MST
Civil Twilight 4:38 AM MST 8:08 PM MST
Nautical Twilight 4:02 AM MST 8:45 PM MST
Astronomical Twilight 3:21 AM MST 9:26 PM MST
Moon 12:31 PM MST (6/16) 12:00 AM MST (6/16)
Length of Visible Light 15h 29m
Length of Day
14h 30m
Waxing Crescent, 51% of the Moon is Illuminated
Jun 16
Waxing Crescent
Jun 23
Full
Jun 29
Last Quarter
Jul 8
New
Jul 15
First Quarter

Hourly Weather History & Observations

Time (MST) Temp. Dew Point Humidity Pressure Visibility Wind Dir Wind Speed Gust Speed Precip Events Conditions
12:56 AM 71.1 °F 43.0 °F 36% 29.86 in 10.0 mi South 9.2 mph - N/A   Scattered Clouds
1:56 AM 68.0 °F 43.0 °F 40% 29.88 in 10.0 mi ESE 6.9 mph - N/A   Clear
2:56 AM 64.0 °F 43.0 °F 46% 29.88 in 10.0 mi ESE 8.1 mph - N/A   Clear
3:56 AM 62.1 °F 44.1 °F 52% 29.90 in 10.0 mi ESE 9.2 mph - N/A   Clear
4:56 AM 60.1 °F 44.1 °F 55% 29.92 in 10.0 mi SE 6.9 mph - N/A   Clear
5:56 AM 61.0 °F 45.0 °F 56% 29.94 in 10.0 mi ESE 5.8 mph - N/A   Clear
6:56 AM 66.0 °F 46.9 °F 50% 29.94 in 10.0 mi ESE 10.4 mph - N/A   Clear
7:56 AM 73.0 °F 45.0 °F 37% 29.94 in 10.0 mi East 6.9 mph - N/A   Clear
8:56 AM 79.0 °F 44.1 °F 29% 29.93 in 10.0 mi ENE 3.5 mph - N/A   Clear
9:56 AM 84.9 °F 43.0 °F 23% 29.91 in 10.0 mi ESE 6.9 mph - N/A   Clear
10:56 AM 89.1 °F 37.0 °F 16% 29.89 in 10.0 mi SSW 15.0 mph 24.2 mph N/A   Mostly Cloudy
11:56 AM 91.9 °F 33.1 °F 12% 29.87 in 10.0 mi SW 24.2 mph 33.4 mph 0.00 in   Scattered Clouds
12:56 PM 93.0 °F 34.0 °F 12% 29.85 in 10.0 mi SSW 17.3 mph 31.1 mph N/A   Scattered Clouds
1:56 PM 95.0 °F 33.1 °F 11% 29.83 in 10.0 mi SW 21.9 mph 29.9 mph N/A   Partly Cloudy
2:56 PM 93.9 °F 33.1 °F 12% 29.83 in 10.0 mi SW 16.1 mph 23.0 mph N/A   Partly Cloudy
3:56 PM 93.9 °F 30.0 °F 10% 29.83 in 10.0 mi WSW 15.0 mph 32.2 mph N/A   Clear
4:56 PM 91.9 °F 26.1 °F 9% 29.83 in 10.0 mi SW 13.8 mph 25.3 mph N/A   Clear
5:56 PM 90.0 °F 28.0 °F 11% 29.83 in 10.0 mi WSW 17.3 mph 25.3 mph N/A   Clear
6:56 PM 88.0 °F 27.0 °F 11% 29.83 in 10.0 mi WSW 18.4 mph 21.9 mph N/A   Clear
7:56 PM 82.9 °F 25.0 °F 12% 29.84 in 10.0 mi WSW 12.7 mph - N/A   Clear
8:56 PM 78.1 °F 25.0 °F 14% 29.85 in 10.0 mi SW 11.5 mph - N/A   Clear
9:56 PM 73.0 °F 25.0 °F 17% 29.86 in 10.0 mi SSW 11.5 mph - N/A   Clear
10:56 PM 71.1 °F 25.0 °F 18% 29.86 in 10.0 mi SW 10.4 mph - N/A   Clear
11:56 PM 70.0 °F 25.0 °F 18% 29.86 in 10.0 mi SW 9.2 mph - N/A   Clear